Regional Weather Roundup
Issued by NWS

Home | Current Version | Previous Version | Graphics & Text | Print | Product List | Glossary On
Versions: 1 2 3 4 5 6 7 8 9 10 11 12 13 14 15 16 17 18 19 20 21 22 23 24 25 26 27
000
ASUS45 KTFX 030810
RWRMT
MONTANA REGIONAL WEATHER ROUNDUP
NATIONAL WEATHER SERVICE GREAT FALLS MT
100 AM MST SAT DEC 03 2016

NOTE: "FAIR" INDICATES FEW OR NO CLOUDS BELOW 12000 FEET WITH NO
SIGNIFICANT WEATHER AND/OR OBSTRUCTIONS TO VISIBILITY.

MTZ001>007-043-030900-
WEST OF THE DIVIDE

CITY           SKY/WX    TMP DP  RH WIND       PRES   REMARKS
KALISPELL      MIX PCPN  31  30  96 S9        29.99F WCI  23
MULLAN PASS    LGT SNOW  22  20  92 SW9G17    29.91F FOG     WCI  12
ANACONDA         N/A     28  18  64 S8        29.99F WCI  20
DEER LODGE       N/A     27  25  93 CALM      30.02F
EUREKA           N/A     36  27  69 SE13G18   29.95F WCI  27
HAMILTON         N/A     36  19  51 SE15G22   30.04F WCI  26
LIBBY            N/A     32  30  93 CALM      29.96F
PLAINS           N/A     37  24  60 CALM      30.02F
RONAN            N/A     34  25  70 CALM      30.04F
$$

MTZ008-052>055-030900-
SOUTHWEST MONTANA

CITY           SKY/WX    TMP DP  RH WIND       PRES   REMARKS
BOZEMAN        CLOUDY    26  23  88 NE3       30.01F
W YELLOWSTONE  LGT SNOW  16  10  79 SW8       30.09F WCI   5
ENNIS          CLOUDY    25  16  68 S18       30.09F WCI  11
THREE FORKS      N/A     30 -21  10 S21       30.00F WCI  17
TWIN BRIDGES     N/A     30  13  49 SE12      30.02F WCI  20
$$

MTZ009-010-012-014-046-048-049-054-030900-
EAST SLOPES AND CENTRAL MONTANA

CITY           SKY/WX    TMP DP  RH WIND       PRES   REMARKS
MALMSTROM AFB  CLEAR     31  23  72 SW28G33   29.82F WCI  17
AUGUSTA          N/A     34  19  54 W29G47    29.78F WCI  21
BOWMANS CRNR     N/A     28  19  69 S23G30    29.80F WCI  13
CHOTEAU          N/A     37  19  48 SW18G29   29.78S WCI  27
CONRAD           N/A     34  26  72 SW7       29.81S WCI  28
FAIRFIELD        N/A     35  19  53 SW21G35   29.78F WCI  24
POWER            N/A     29  20  68 SW16      29.79F WCI  17
RAYNESFORD       N/A     33  20  60 SW16G23   29.83F WCI  22
ULM            MOCLDY    33  22  63 W16G28    29.84F WCI  23
$$

MTZ011-013-016-021-045-047-050-051-030900-
NORTH CENTRAL MONTANA

CITY           SKY/WX    TMP DP  RH WIND       PRES   REMARKS
N BAR RANCH    CLOUDY    28  14  54 CALM      29.84F
CHINOOK          N/A     36  27  69 SW7       29.79F WCI  30
DENTON         MOCLDY    30  24  78 SE15G23   29.80F WCI  19
GEYSER           N/A     30  20  65 W29G40    29.77F WCI  15
GRASS RANGE    CLOUDY    33  20  59 W14       29.80F WCI  23
JUDITH GAP     MOCLDY    28  19  69 W18G24    29.83F WCI  15
ROY            LGT RAIN  33  24  70 MISG      29.82F
STANFORD       MOCLDY    32  20  59 W17G23    29.81F WCI  21
WINIFRED       FLURRIES  30  26  83 MISG      29.82F
$$

MTZ017>020-022>027-061-062-030900-
NORTHEAST MONTANA

CITY           SKY/WX    TMP DP  RH WIND       PRES   REMARKS
JORDAN           N/A     22  16  78 NW3       29.87F
SIDNEY         CLEAR     18  16  92 S6        29.96F WCI  10
PLENTYWOOD       N/A     19  19 100 SE8       29.89F WCI   9
POPLAR           N/A     27  21  80 S8        29.90F WCI  18
SCOBEY           N/A     18  11  74 S2        29.83F
$$

MTZ028>42-056>058-030900-
SOUTHCENTRAL AND SOUTHEAST MONTANA

CITY           SKY/WX    TMP DP  RH WIND       PRES   REMARKS
BAKER          CLEAR     25  18  74 S15       29.97  WCI  13
BILLINGS       CLOUDY    31  16  54 SW12      29.90  WCI  22
BIG TIMBER     MOCLDY    30  14  51 W41G53    29.88F WCI  13
EKALAKA          N/A     29  19  66 SE15      29.92F WCI  18
FORSYTH          N/A     27  19  74 CALM      29.92F
HARLOWTON      MOCLDY    30  19  63 W24G35    29.86F WCI  16
LAUREL           N/A     32  10  40 SW8       29.90F WCI  25
ROUNDUP          N/A     26  11  53 S8        29.81F WCI  18
$$

REGIONAL REPORTS...DAKOTAS

CITY           SKY/WX    TMP DP  RH WIND       PRES   REMARKS
WILLISTON      CLEAR     24  20  84 S5        29.96F
MINOT          CLEAR     21  19  92 SE8       30.03F WCI  11
DICKINSON      CLEAR     18  15  88 S13       29.99F WCI   5
BEACH            N/A     18  16  93 SE6       29.98F WCI   9
CROSBY           N/A     21  21 100 S14       29.94F WCI   8
TIOGA            N/A     19  19 100 S6        29.97F WCI  11
WATFORD CITY     N/A     19  18  93 CALM      29.97F
BISMARCK       CLEAR     21  21 100 S8        30.13F WCI  11
GRAND FORKS    CLOUDY    29  21  72 S9        30.23  WCI  20
FARGO          CLOUDY    27  18  69 SW10      30.28  WCI  17
BUFFALO SD       N/A     21  19  92 S10       29.94F WCI  10
RAPID CITY     CLEAR     18  15  88 SE7       30.06F WCI   9
$$

REGIONAL REPORTS...WYOMING/IDAHO/WASHINGTON

CITY           SKY/WX    TMP DP  RH WIND       PRES   REMARKS
GILLETTE       CLEAR     24  16  71 S18       29.93F WCI  10
BUFFALO WY     CLEAR     23   6  48 W8        29.91F WCI  14
CODY           CLOUDY    31   9  39 W14G31    29.95F WCI  21
YELLOWSTONE LA   N/A     11   8  88 VRB3      30.07F
SPOKANE        MOCLDY    37  33  85 SW16      30.01F WCI  28
$$

REGIONAL REPORTS...ALBERTA

CITY           SKY/WX    TMP DP  RH WIND       PRES   REMARKS
EDMONTON       CLEAR     21  19  93 W6        29.64S WCI  14
CALGARY        MOCLDY    39  18  41 W15       29.66F WCI  31
LETHBRIDGE     CLOUDY    39  21  48 W38G51    29.70S WCI  26
MEDICINE HAT   MOCLDY    34  25  69 SW12      29.67F WCI  25
WATERTON GATE    N/A     30  23  74 SW21G39     N/A  WCI  17
CARDSTON         N/A     37  19  48 W22G35      N/A  WCI  27
MILK RIVER       N/A     32  21  64 W14G22      N/A  WCI  22
ONEFOUR          N/A     30  25  80 S7          N/A  WCI  23
$$

REGIONAL REPORTS...SASKATCHEWAN

CITY           SKY/WX    TMP DP  RH WIND       PRES   REMARKS
SWIFT CURRENT  CLOUDY    28  25  86 S17       29.67F WCI  16
REGINA         PTCLDY    19  19 100 SE14      29.83F WCI   6
SASKATOON      PTCLDY    23  19  86 SE12      29.78F WCI  12
CYPRESS HILLS    N/A     27  25  93 S9          N/A  WCI  17
VAL MARIE        N/A     27  23  86 S12         N/A  WCI  16
ROCKGLEN         N/A     23  21  93 S8          N/A  WCI  14
ASSINIBOIA       N/A     27  25  93 SE7         N/A  WCI  19
$$




USA.gov is the U.S. government's official web portal to all federal, state and local government web resources and services.